"Time","Value","Approval","myLocation"
"2023-05-12 00:00",19.9747098621067,"Approved","OW430"
"2023-05-12 01:00",19.9730144236079,"Approved","OW430"
"2023-05-12 02:00",19.9739389651091,"Approved","OW430"
"2023-05-12 03:00",19.9711175566104,"Approved","OW430"
"2023-05-12 04:00",19.9719241181116,"Approved","OW430"
"2023-05-12 05:00",19.9727526596128,"Approved","OW430"
"2023-05-12 06:00",19.9703512311141,"Approved","OW430"
"2023-05-12 07:00",19.9702657826153,"Approved","OW430"
"2023-05-12 08:00",19.9673283941165,"Approved","OW430"
"2023-05-12 09:00",19.9671129756178,"Approved","OW430"
"2023-05-12 10:00",19.966867597119,"Approved","OW430"
"2023-05-12 11:00",19.9660002486202,"Approved","OW430"
"2023-05-12 12:00",19.9668289001215,"Approved","OW430"
"2023-05-12 13:00",19.9685655416227,"Approved","OW430"
"2023-05-12 14:00",19.9688782031239,"Approved","OW430"
"2023-05-12 15:00",19.9702988646252,"Approved","OW430"
"2023-05-12 16:00",19.9716355061264,"Approved","OW430"
"2023-05-12 17:00",19.9727741476276,"Approved","OW430"
"2023-05-12 18:00",19.9749547391289,"Approved","OW430"
"2023-05-12 19:00",19.9766772806301,"Approved","OW430"
"2023-05-12 20:00",19.9771058121313,"Approved","OW430"
"2023-05-12 21:00",19.9770283636326,"Approved","OW430"
"2023-05-12 22:00",19.9764429151338,"Approved","OW430"
"2023-05-12 23:00",19.975155466635,"Approved","OW430"
"2023-05-13 00:00",19.9750680181363,"Approved","OW430"
"2023-05-13 01:00",19.9727386196375,"Approved","OW430"
"2023-05-13 02:00",19.9747471811387,"Approved","OW430"
"2023-05-13 03:00",19.97283776264,"Approved","OW430"
"2023-05-13 04:00",19.9733463241412,"Approved","OW430"
"2023-05-13 05:00",19.9748628756424,"Approved","OW430"
"2023-05-13 06:00",19.9719474571437,"Approved","OW430"
"2023-05-13 07:00",19.9699140686449,"Approved","OW430"
"2023-05-13 08:00",19.9686587001461,"Approved","OW430"
"2023-05-13 09:00",19.9695933416474,"Approved","OW430"
"2023-05-13 10:00",19.9701199931486,"Approved","OW430"
"2023-05-13 11:00",19.9696046946498,"Approved","OW430"
"2023-05-13 12:00",19.9706694161511,"Approved","OW430"
"2023-05-13 13:00",19.9744621076523,"Approved","OW430"
"2023-05-13 14:00",19.9727148391535,"Approved","OW430"
"2023-05-13 15:00",19.9734595906548,"Approved","OW430"
"2023-05-13 16:00",19.974396342156,"Approved","OW430"
"2023-05-13 17:00",19.9766650636572,"Approved","OW430"
"2023-05-13 18:00",19.9784657451585,"Approved","OW430"
"2023-05-13 19:00",19.9846762966597,"Approved","OW430"
"2023-05-13 20:00",19.9836508981609,"Approved","OW430"
"2023-05-13 21:00",19.9855434696622,"Approved","OW430"
"2023-05-13 22:00",19.9853100811634,"Approved","OW430"
"2023-05-13 23:00",19.9866086526646,"Approved","OW430"
"2023-05-14 00:00",19.9864832541659,"Approved","OW430"
"2023-05-14 01:00",19.9815799356671,"Approved","OW430"
"2023-05-14 02:00",19.9859465471683,"Approved","OW430"
"2023-05-14 03:00",19.9843831886696,"Approved","OW430"
"2023-05-14 04:00",19.9837818701708,"Approved","OW430"
"2023-05-14 05:00",19.986524501672,"Approved","OW430"
"2023-05-14 06:00",19.9877971031733,"Approved","OW430"
"2023-05-14 07:00",19.9835718146745,"Approved","OW430"
"2023-05-14 08:00",19.9807045761757,"Approved","OW430"
"2023-05-14 09:00",19.981547317677,"Approved","OW430"
"2023-05-14 10:00",19.9798740891782,"Approved","OW430"
"2023-05-14 11:00",19.9821488006794,"Approved","OW430"
"2023-05-14 12:00",19.9825175121807,"Approved","OW430"
"2023-05-14 13:00",19.9809722536819,"Approved","OW430"
"2023-05-14 14:00",19.9811030151831,"Approved","OW430"
"2023-05-14 15:00",19.9818597466844,"Approved","OW430"
"2023-05-14 16:00",19.9830404481856,"Approved","OW430"
"2023-05-14 17:00",19.9862790896868,"Approved","OW430"
"2023-05-14 18:00",19.9879377011881,"Approved","OW430"
"2023-05-14 19:00",19.9934962026893,"Approved","OW430"
"2023-05-14 20:00",19.9947487141905,"Approved","OW430"
"2023-05-14 21:00",19.9921432856918,"Approved","OW430"
"2023-05-14 22:00",19.992925877193,"Approved","OW430"
"2023-05-14 23:00",19.9916784986942,"Approved","OW430"
"2023-05-15 00:00",19.9948730801955,"Approved","OW430"
"2023-05-15 01:00",19.9916977316967,"Approved","OW430"
"2023-05-15 02:00",19.992646353198,"Approved","OW430"
"2023-05-15 03:00",19.9936069746992,"Approved","OW430"
"2023-05-15 04:00",19.9934835662004,"Approved","OW430"
"2023-05-15 05:00",19.9948641577016,"Approved","OW430"
"2023-05-15 06:00",19.9931067892029,"Approved","OW430"
"2023-05-15 07:00",19.9911054807041,"Approved","OW430"
"2023-05-15 08:00",19.9900001622054,"Approved","OW430"
"2023-05-15 09:00",19.9940647737066,"Approved","OW430"
"2023-05-15 10:00",19.9912794352078,"Approved","OW430"
"2023-05-15 11:00",19.9882461567091,"Approved","OW430"
"2023-05-15 12:00",19.9908628282103,"Approved","OW430"
"2023-05-15 13:00",19.9904615097115,"Approved","OW430"
"2023-05-15 14:00",19.9900342212128,"Approved","OW430"
"2023-05-15 15:00",19.989302942714,"Approved","OW430"
"2023-05-15 16:00",19.9918176042152,"Approved","OW430"
"2023-05-15 17:00",19.9935582457165,"Approved","OW430"
"2023-05-15 18:00",19.9951288472177,"Approved","OW430"
"2023-05-15 19:00",20.0007113187189,"Approved","OW430"
"2023-05-15 20:00",20.0064876902202,"Approved","OW430"
"2023-05-15 21:00",19.9997822617214,"Approved","OW430"
"2023-05-15 22:00",20.0043487532226,"Approved","OW430"
"2023-05-15 23:00",20.0118530947239,"Approved","OW430"
"2023-05-16 00:00",20.0062475562251,"Approved","OW430"
"2023-05-16 01:00",20.0054180477263,"Approved","OW430"
"2023-05-16 02:00",20.0048605692276,"Approved","OW430"
"2023-05-16 03:00",20.0050970907288,"Approved","OW430"
"2023-05-16 04:00",20.00219966223,"Approved","OW430"
"2023-05-16 05:00",20.0091260837313,"Approved","OW430"
"2023-05-16 06:00",20.0005926952325,"Approved","OW430"
"2023-05-16 07:00",19.9993393267337,"Approved","OW430"
"2023-05-16 08:00",20.002361868235,"Approved","OW430"
"2023-05-16 09:00",20.0002444597362,"Approved","OW430"
"2023-05-16 10:00",19.9997950812374,"Approved","OW430"
"2023-05-16 11:00",19.9974937627387,"Approved","OW430"
"2023-05-16 12:00",19.9987964442399,"Approved","OW430"
"2023-05-16 13:00",19.9955351957411,"Approved","OW430"
"2023-05-16 14:00",19.9940479772424,"Approved","OW430"
"2023-05-16 15:00",19.9964087087436,"Approved","OW430"
"2023-05-16 16:00",19.9967714302448,"Approved","OW430"
"2023-05-16 17:00",19.9984621217461,"Approved","OW430"
"2023-05-16 18:00",20.0033566932473,"Approved","OW430"
"2023-05-16 19:00",20.0081351747485,"Approved","OW430"
"2023-05-16 20:00",20.0065697062498,"Approved","OW430"
"2023-05-16 21:00",20.002312337751,"Approved","OW430"
"2023-05-16 22:00",20.0051909392522,"Approved","OW430"
"2023-05-16 23:00",20.0001656507535,"Approved","OW430"
"2023-05-17 00:00",20.0063562222547,"Approved","OW430"
"2023-05-17 01:00",20.0064607937559,"Approved","OW430"
"2023-05-17 02:00",20.0054333852572,"Approved","OW430"
"2023-05-17 03:00",20.0037580467584,"Approved","OW430"
"2023-05-17 04:00",20.0048046782596,"Approved","OW430"
"2023-05-17 05:00",20.0074952497609,"Approved","OW430"
"2023-05-17 06:00",20.0039219012621,"Approved","OW430"
"2023-05-17 07:00",20.0024126027633,"Approved","OW430"
"2023-05-17 08:00",20.0026132842646,"Approved","OW430"
"2023-05-17 09:00",20.0007760057658,"Approved","OW430"
"2023-05-17 10:00",20.001054717267,"Approved","OW430"
"2023-05-17 11:00",19.9983614987683,"Approved","OW430"
"2023-05-17 12:00",19.9995962602695,"Approved","OW430"
"2023-05-17 13:00",20.0000430017707,"Approved","OW430"
"2023-05-17 14:00",19.997841793272,"Approved","OW430"
"2023-05-17 15:00",19.9984685647732,"Approved","OW430"
"2023-05-17 16:00",19.9980953262744,"Approved","OW430"
"2023-05-17 17:00",19.9996580577757,"Approved","OW430"
"2023-05-17 18:00",20.0035946992769,"Approved","OW430"
"2023-05-17 19:00",20.0054533107781,"Approved","OW430"
"2023-05-17 20:00",20.0105958322794,"Approved","OW430"
"2023-05-17 21:00",20.0104183737806,"Approved","OW430"
"2023-05-17 22:00",20.0110329252818,"Approved","OW430"
"2023-05-17 23:00",20.0085855467831,"Approved","OW430"
"2023-05-18 00:00",20.0114941082843,"Approved","OW430"
"2023-05-18 01:00",20.0106826897855,"Approved","OW430"
"2023-05-18 02:00",20.0103592912868,"Approved","OW430"
"2023-05-18 03:00",20.009411912788,"Approved","OW430"
"2023-05-18 04:00",20.0113905042892,"Approved","OW430"
"2023-05-18 05:00",20.0163530057905,"Approved","OW430"
"2023-05-18 06:00",20.0144835372917,"Approved","OW430"
"2023-05-18 07:00",20.0109441487929,"Approved","OW430"
"2023-05-18 08:00",20.0114187502942,"Approved","OW430"
"2023-05-18 09:00",20.0117033317954,"Approved","OW430"
"2023-05-18 10:00",20.0093439732966,"Approved","OW430"
"2023-05-18 11:00",20.0112385447979,"Approved","OW430"
"2023-05-18 12:00",20.0135510962991,"Approved","OW430"
"2023-05-18 13:00",20.0111396878003,"Approved","OW430"
"2023-05-18 14:00",20.0117102893016,"Approved","OW430"
"2023-05-18 15:00",20.0090289508028,"Approved","OW430"
"2023-05-18 16:00",20.011587562304,"Approved","OW430"
"2023-05-18 17:00",20.0147061138053,"Approved","OW430"
"2023-05-18 18:00",20.0171566253065,"Approved","OW430"
"2023-05-18 19:00",20.0200810468077,"Approved","OW430"
"2023-05-18 20:00",20.022621458309,"Approved","OW430"
"2023-05-18 21:00",20.0181420098102,"Approved","OW430"
"2023-05-18 22:00",20.0179905213114,"Approved","OW430"
"2023-05-18 23:00",20.0208510228127,"Approved","OW430"
"2023-05-19 00:00",20.0174635743139,"Approved","OW430"
"2023-05-19 01:00",20.0168641458151,"Approved","OW430"
"2023-05-19 02:00",20.0195166573164,"Approved","OW430"
"2023-05-19 03:00",20.0172411988176,"Approved","OW430"
"2023-05-19 04:00",20.0160657403188,"Approved","OW430"
"2023-05-19 05:00",20.0150002618201,"Approved","OW430"
"2023-05-19 06:00",20.0127228133213,"Approved","OW430"
"2023-05-19 07:00",20.0087954048225,"Approved","OW430"
"2023-05-19 08:00",20.0086680063238,"Approved","OW430"
"2023-05-19 09:00",20.008530617825,"Approved","OW430"
"2023-05-19 10:00",20.0072772493262,"Approved","OW430"
"2023-05-19 11:00",20.0070899208275,"Approved","OW430"
"2023-05-19 12:00",20.0089985923287,"Approved","OW430"
"2023-05-19 13:00",20.0108252438299,"Approved","OW430"
"2023-05-19 14:00",20.0081839753312,"Approved","OW430"
"2023-05-19 15:00",20.0101506968324,"Approved","OW430"
"2023-05-19 16:00",20.0133393883337,"Approved","OW430"
"2023-05-19 17:00",20.0136300798349,"Approved","OW430"
"2023-05-19 18:00",20.0174707213361,"Approved","OW430"
"2023-05-19 19:00",20.0206752828373,"Approved","OW430"
"2023-05-19 20:00",20.0236417743386,"Approved","OW430"
"2023-05-19 21:00",20.0186983958398,"Approved","OW430"
"2023-05-19 22:00",20.0205849773411,"Approved","OW430"
"2023-05-19 23:00",20.0239155088423,"Approved","OW430"
"2023-05-20 00:00",20.0198941103435,"Approved","OW430"
"2023-05-20 01:00",20.0213086618448,"Approved","OW430"
"2023-05-20 02:00",20.019205233346,"Approved","OW430"
"2023-05-20 03:00",20.0179978048472,"Approved","OW430"
"2023-05-20 04:00",20.0193083663485,"Approved","OW430"
"2023-05-20 05:00",20.0194349078497,"Approved","OW430"
"2023-05-20 06:00",20.0171614493509,"Approved","OW430"
"2023-05-20 07:00",20.0108881008522,"Approved","OW430"
"2023-05-20 08:00",20.0120067623534,"Approved","OW430"
"2023-05-20 09:00",20.0139473938546,"Approved","OW430"
"2023-05-20 10:00",20.0149880353559,"Approved","OW430"
"2023-05-20 11:00",20.0160166768571,"Approved","OW430"
"2023-05-20 12:00",20.0159353383583,"Approved","OW430"
"2023-05-20 13:00",20.0175440198596,"Approved","OW430"
"2023-05-20 14:00",20.0166067413608,"Approved","OW430"
"2023-05-20 15:00",20.017871462862,"Approved","OW430"
"2023-05-20 16:00",20.0193641543633,"Approved","OW430"
"2023-05-20 17:00",20.0218087858645,"Approved","OW430"
"2023-05-20 18:00",20.0248993673657,"Approved","OW430"
"2023-05-20 19:00",20.026515918867,"Approved","OW430"
"2023-05-20 20:00",20.0264484503682,"Approved","OW430"
"2023-05-20 21:00",20.0275749818694,"Approved","OW430"
"2023-05-20 22:00",20.0258775533707,"Approved","OW430"
"2023-05-20 23:00",20.0268040948719,"Approved","OW430"
"2023-05-21 00:00",20.0230866763731,"Approved","OW430"
"2023-05-21 01:00",20.0210612778744,"Approved","OW430"
"2023-05-21 02:00",20.0213478593756,"Approved","OW430"
"2023-05-21 03:00",20.0228464308768,"Approved","OW430"
"2023-05-21 04:00",20.0231509923781,"Approved","OW430"
"2023-05-21 05:00",20.0231635538793,"Approved","OW430"
"2023-05-21 06:00",20.0199461453805,"Approved","OW430"
"2023-05-21 07:00",20.0196307268818,"Approved","OW430"
"2023-05-21 08:00",20.020757268383,"Approved","OW430"
"2023-05-21 09:00",20.0163699298842,"Approved","OW430"
"2023-05-21 10:00",20.0163945913855,"Approved","OW430"
"2023-05-21 11:00",20.0188172428867,"Approved","OW430"
"2023-05-21 12:00",20.0214638743879,"Approved","OW430"
"2023-05-21 13:00",20.0223144958892,"Approved","OW430"
"2023-05-21 14:00",20.0218671273904,"Approved","OW430"
"2023-05-21 15:00",20.0217357288916,"Approved","OW430"
"2023-05-21 16:00",20.0216803603929,"Approved","OW430"
"2023-05-21 17:00",20.0239469718941,"Approved","OW430"
"2023-05-21 18:00",20.0265435433953,"Approved","OW430"
"2023-05-21 19:00",20.0245401148966,"Approved","OW430"
"2023-05-21 20:00",20.0247286963978,"Approved","OW430"
"2023-05-21 21:00",20.023103297899,"Approved","OW430"
"2023-05-21 22:00",20.0227579094003,"Approved","OW430"
"2023-05-21 23:00",20.0236285209015,"Approved","OW430"
"2023-05-22 00:00",20.0250071124027,"Approved","OW430"
"2023-05-22 01:00",20.025361733904,"Approved","OW430"
"2023-05-22 02:00",20.0260483154052,"Approved","OW430"
"2023-05-22 03:00",20.0234909469064,"Approved","OW430"
"2023-05-22 04:00",20.0260515584077,"Approved","OW430"
"2023-05-22 05:00",20.0247981899089,"Approved","OW430"
"2023-05-22 06:00",20.0269887714101,"Approved","OW430"
"2023-05-22 07:00",20.0279673629114,"Approved","OW430"
"2023-05-22 08:00",20.0254139944126,"Approved","OW430"
"2023-05-22 09:00",20.0273666159138,"Approved","OW430"
"2023-05-22 10:00",20.0300691874151,"Approved","OW430"
"2023-05-22 11:00",20.0283357889163,"Approved","OW430"
"2023-05-22 12:00",20.0280884104175,"Approved","OW430"
"2023-05-22 13:00",20.0273170619188,"Approved","OW430"
"2023-05-22 14:00",20.02939965342,"Approved","OW430"
"2023-05-22 15:00",20.0286402849212,"Approved","OW430"
"2023-05-22 16:00",20.0299889164225,"Approved","OW430"
"2023-05-22 17:00",20.0308535279237,"Approved","OW430"
"2023-05-22 18:00",20.0321401094249,"Approved","OW430"
"2023-05-22 19:00",20.0305067209262,"Approved","OW430"
"2023-05-22 20:00",20.0311793124274,"Approved","OW430"
"2023-05-22 21:00",20.0332778839286,"Approved","OW430"
"2023-05-22 22:00",20.0324864454299,"Approved","OW430"
"2023-05-22 23:00",20.0295490569311,"Approved","OW430"
"2023-05-23 00:00",20.0304076784323,"Approved","OW430"
"2023-05-23 01:00",20.0304383199336,"Approved","OW430"
"2023-05-23 02:00",20.0332129214348,"Approved","OW430"
"2023-05-23 03:00",20.033091512936,"Approved","OW430"
"2023-05-23 04:00",20.0339800944373,"Approved","OW430"
"2023-05-23 05:00",20.0319247259385,"Approved","OW430"
"2023-05-23 06:00",20.0312473874397,"Approved","OW430"
"2023-05-23 07:00",20.031972038941,"Approved","OW430"
"2023-05-23 08:00",20.0321907004422,"Approved","OW430"
"2023-05-23 09:00",20.0355493119434,"Approved","OW430"
"2023-05-23 10:00",20.0351919534447,"Approved","OW430"
"2023-05-23 11:00",20.0373425749459,"Approved","OW430"
"2023-05-23 12:00",20.0388251664471,"Approved","OW430"
"2023-05-23 13:00",20.0357598079484,"Approved","OW430"
"2023-05-23 14:00",20.0348684794496,"Approved","OW430"
"2023-05-23 15:00",20.0365831509508,"Approved","OW430"
"2023-05-23 16:00",20.0381197824521,"Approved","OW430"
"2023-05-23 17:00",20.0389664139533,"Approved","OW430"
"2023-05-23 18:00",20.0397110454545,"Approved","OW430"
"2023-05-23 19:00",20.0412876469558,"Approved","OW430"
"2023-05-23 20:00",20.042282218457,"Approved","OW430"
"2023-05-23 21:00",20.0400408399582,"Approved","OW430"
"2023-05-23 22:00",20.0395834714595,"Approved","OW430"
"2023-05-23 23:00",20.0406500729607,"Approved","OW430"
"2023-05-24 00:00",20.0404126844619,"Approved","OW430"
"2023-05-24 01:00",20.0400653159632,"Approved","OW430"
"2023-05-24 02:00",20.0403219274644,"Approved","OW430"
"2023-05-24 03:00",20.0419005189656,"Approved","OW430"
"2023-05-24 04:00",20.0420911004669,"Approved","OW430"
"2023-05-24 05:00",20.0432076519681,"Approved","OW430"
"2023-05-24 06:00",20.0384462934693,"Approved","OW430"
"2023-05-24 07:00",20.0390589549706,"Approved","OW430"
"2023-05-24 08:00",20.0390796164718,"Approved","OW430"
"2023-05-24 09:00",20.0418282479731,"Approved","OW430"
"2023-05-24 10:00",20.0425748794743,"Approved","OW430"
"2023-05-24 11:00",20.0422975309755,"Approved","OW430"
"2023-05-24 12:00",20.0420022124768,"Approved","OW430"
"2023-05-24 13:00",20.042008883978,"Approved","OW430"
"2023-05-24 14:00",20.0428115654792,"Approved","OW430"
"2023-05-24 15:00",20.0446202369804,"Approved","OW430"
"2023-05-24 16:00",20.0429689784817,"Approved","OW430"
"2023-05-24 17:00",20.0435217099829,"Approved","OW430"
"2023-05-24 18:00",20.0482523614842,"Approved","OW430"
"2023-05-24 19:00",20.0509389429854,"Approved","OW430"
"2023-05-24 20:00",20.0530574944866,"Approved","OW430"
"2023-05-24 21:00",20.0506240959879,"Approved","OW430"
"2023-05-24 22:00",20.0497767274891,"Approved","OW430"
"2023-05-24 23:00",20.0507393389903,"Approved","OW430"
"2023-05-25 00:00",20.0528299104916,"Approved","OW430"
"2023-05-25 01:00",20.0486505719928,"Approved","OW430"
"2023-05-25 02:00",20.051513183494,"Approved","OW430"
"2023-05-25 03:00",20.0494198649953,"Approved","OW430"
"2023-05-25 04:00",20.0543164364965,"Approved","OW430"
"2023-05-25 05:00",20.0517870379977,"Approved","OW430"
"2023-05-25 06:00",20.051543649499,"Approved","OW430"
"2023-05-25 07:00",20.0502643110002,"Approved","OW430"
"2023-05-25 08:00",20.0486610025014,"Approved","OW430"
"2023-05-25 09:00",20.0501736640027,"Approved","OW430"
"2023-05-25 10:00",20.0502823455039,"Approved","OW430"
"2023-05-25 11:00",20.0489490570051,"Approved","OW430"
"2023-05-25 12:00",20.0488057885064,"Approved","OW430"
"2023-05-25 13:00",20.0478585300076,"Approved","OW430"
"2023-05-25 14:00",20.0480932815088,"Approved","OW430"
"2023-05-25 15:00",20.0488420230101,"Approved","OW430"
"2023-05-25 16:00",20.0491987545113,"Approved","OW430"
"2023-05-25 17:00",20.0527194160125,"Approved","OW430"
"2023-05-25 18:00",20.0570299775138,"Approved","OW430"
"2023-05-25 19:00",20.059278489015,"Approved","OW430"
"2023-05-25 20:00",20.0591070205162,"Approved","OW430"
"2023-05-25 21:00",20.0577936120175,"Approved","OW430"
"2023-05-25 22:00",20.0589961735187,"Approved","OW430"
"2023-05-25 23:00",20.0617307050199,"Approved","OW430"
"2023-05-26 00:00",20.0601372665212,"Approved","OW430"
"2023-05-26 01:00",20.0587138580224,"Approved","OW430"
"2023-05-26 02:00",20.0600064395236,"Approved","OW430"
"2023-05-26 03:00",20.0594950210249,"Approved","OW430"
"2023-05-26 04:00",20.0608935925261,"Approved","OW430"
"2023-05-26 05:00",20.0609841740273,"Approved","OW430"
"2023-05-26 06:00",20.0587427855286,"Approved","OW430"
"2023-05-26 07:00",20.0606173870298,"Approved","OW430"
"2023-05-26 08:00",20.055734048531,"Approved","OW430"
"2023-05-26 09:00",20.0551267400323,"Approved","OW430"
"2023-05-26 10:00",20.0571434015335,"Approved","OW430"
"2023-05-26 11:00",20.0547201130347,"Approved","OW430"
"2023-05-26 12:00",20.055386834536,"Approved","OW430"
"2023-05-26 13:00",20.0560675360372,"Approved","OW430"
"2023-05-26 14:00",20.0559282675384,"Approved","OW430"
"2023-05-26 15:00",20.0572329390397,"Approved","OW430"
"2023-05-26 16:00",20.0578775705409,"Approved","OW430"
"2023-05-26 17:00",20.0547903520421,"Approved","OW430"
"2023-05-26 18:00",20.0606749435434,"Approved","OW430"
"2023-05-26 19:00",20.0658054750446,"Approved","OW430"
"2023-05-26 20:00",20.0686939465458,"Approved","OW430"
"2023-05-26 21:00",20.0673344680471,"Approved","OW430"
"2023-05-26 22:00",20.0658110595483,"Approved","OW430"
"2023-05-26 23:00",20.0672076410495,"Approved","OW430"
"2023-05-27 00:00",20.0675161925508,"Approved","OW430"
"2023-05-27 01:00",20.068818764052,"Approved","OW430"
"2023-05-27 02:00",20.0696233255532,"Approved","OW430"
"2023-05-27 03:00",20.0710598570545,"Approved","OW430"
"2023-05-27 04:00",20.0736423285557,"Approved","OW430"
"2023-05-27 05:00",20.0706908400569,"Approved","OW430"
"2023-05-27 06:00",20.0695113915582,"Approved","OW430"
"2023-05-27 07:00",20.0667779930594,"Approved","OW430"
"2023-05-27 08:00",20.0689845545606,"Approved","OW430"
"2023-05-27 09:00",20.0689831260619,"Approved","OW430"
"2023-05-27 10:00",20.0667297575631,"Approved","OW430"
"2023-05-27 11:00",20.0667743890643,"Approved","OW430"
"2023-05-27 12:00",20.0680270105656,"Approved","OW430"
"2023-05-27 13:00",20.0636957320668,"Approved","OW430"
"2023-05-27 14:00",20.066618383568,"Approved","OW430"
"2023-05-27 15:00",20.0681650150693,"Approved","OW430"
"2023-05-27 16:00",20.0684036565705,"Approved","OW430"
"2023-05-27 17:00",20.0694642680717,"Approved","OW430"
"2023-05-27 18:00",20.074004789573,"Approved","OW430"
"2023-05-27 19:00",20.0737413210742,"Approved","OW430"
"2023-05-27 20:00",20.0744878325754,"Approved","OW430"
"2023-05-27 21:00",20.0732123740767,"Approved","OW430"
"2023-05-27 22:00",20.0715269355779,"Approved","OW430"
"2023-05-27 23:00",20.0698414870791,"Approved","OW430"
"2023-05-28 00:00",20.0688140885804,"Approved","OW430"
"2023-05-28 01:00",20.0713386200816,"Approved","OW430"
"2023-05-28 02:00",20.0672932415828,"Approved","OW430"
"2023-05-28 03:00",20.0695018030841,"Approved","OW430"
"2023-05-28 04:00",20.0688043745853,"Approved","OW430"
"2023-05-28 05:00",20.0688969460865,"Approved","OW430"
"2023-05-28 06:00",20.0671875275878,"Approved","OW430"
"2023-05-28 07:00",20.066284099089,"Approved","OW430"
"2023-05-28 08:00",20.0641686905902,"Approved","OW430"
"2023-05-28 09:00",20.0615753620915,"Approved","OW430"
"2023-05-28 10:00",20.0649179935927,"Approved","OW430"
"2023-05-28 11:00",20.0658526450939,"Approved","OW430"
"2023-05-28 12:00",20.0681792965952,"Approved","OW430"
"2023-05-28 13:00",20.0672839680964,"Approved","OW430"
"2023-05-28 14:00",20.0676586795976,"Approved","OW430"
"2023-05-28 15:00",20.0686194110989,"Approved","OW430"
"2023-05-28 16:00",20.0698961126001,"Approved","OW430"
"2023-05-28 17:00",20.0738207741013,"Approved","OW430"
"2023-05-28 18:00",20.0736494256026,"Approved","OW430"
"2023-05-28 19:00",20.0769160271038,"Approved","OW430"
"2023-05-28 20:00",20.078004608605,"Approved","OW430"
"2023-05-28 21:00",20.0778892001063,"Approved","OW430"
"2023-05-28 22:00",20.0765098516075,"Approved","OW430"
"2023-05-28 23:00",20.0777664731087,"Approved","OW430"
"2023-05-29 00:00",20.07701110461,"Approved","OW430"
"2023-05-29 01:00",20.0803076761112,"Approved","OW430"
"2023-05-29 02:00",20.0799982576125,"Approved","OW430"
"2023-05-29 03:00",20.0780688591137,"Approved","OW430"
"2023-05-29 04:00",20.0793734206149,"Approved","OW430"
"2023-05-29 05:00",20.0769420321162,"Approved","OW430"
"2023-05-29 06:00",20.0772086336174,"Approved","OW430"
"2023-05-29 07:00",20.0772652551186,"Approved","OW430"
"2023-05-29 08:00",20.0760018966199,"Approved","OW430"
"2023-05-29 09:00",20.0749005781211,"Approved","OW430"
"2023-05-29 10:00",20.0755052596223,"Approved","OW430"
"2023-05-29 11:00",20.0755999511236,"Approved","OW430"
"2023-05-29 12:00",20.0764866426248,"Approved","OW430"
"2023-05-29 13:00",20.077891324126,"Approved","OW430"
"2023-05-29 14:00",20.0768560456273,"Approved","OW430"
"2023-05-29 15:00",20.0791667171285,"Approved","OW430"
"2023-05-29 16:00",20.0768334386297,"Approved","OW430"
"2023-05-29 17:00",20.081502040131,"Approved","OW430"
"2023-05-29 18:00",20.0804346816322,"Approved","OW430"
"2023-05-29 19:00",20.0854652231334,"Approved","OW430"